FW1757 Weather Reports


time (UTC)temp
C
wind
direction
speed
KPH
gust
KPH
rain 1hr
cm
rain 24hr
cm
rain mn
cm
humidity
%
barometer
mb
20260508075031 12 232 0.0 0.0 0.00 0.00 0.00 57 1014.1
20260508074528 12 231 0.0 0.0 0.00 0.00 0.00 57 1014.2
20260508074027 12 239 0.0 0.0 0.00 0.00 0.00 57 1014.1
20260508073527 12 257 0.0 0.0 0.00 0.00 0.00 57 1014.2
20260508073036 12 259 0.0 0.0 0.00 0.00 0.00 57 1014.1
20260508072529 12 253 0.0 0.0 0.00 0.00 0.00 57 1014.2
20260508072026 12 254 0.0 0.0 0.00 0.00 0.00 58 1014.2
20260508071526 12 254 0.0 0.0 0.00 0.00 0.00 58 1014.1
20260508071025 12 254 0.0 0.0 0.00 0.00 0.00 56 1014.1
20260508070524 12 254 0.0 0.0 0.00 0.00 0.00 56 1014.1
20260508070024 12 254 0.0 0.0 0.00 0.00 0.00 56 1014.1
20260508065523 12 254 0.0 0.0 0.00 0.00 0.00 54 1014.1
20260508065026 13 254 0.0 0.0 0.00 0.00 0.00 54 1014.0
20260508064527 13 254 0.0 0.0 0.00 0.00 0.00 53 1014.1
20260508064022 13 254 0.0 0.0 0.00 0.00 0.00 52 1014.0
20260508063522 13 254 0.0 0.0 0.00 0.00 0.00 52 1014.0
20260508063021 13 254 0.0 0.0 0.00 0.00 0.00 50 1014.0
20260508062526 14 254 0.0 0.0 0.00 0.00 0.00 51 1014.0
20260508062021 14 254 0.0 0.0 0.00 0.00 0.00 49 1013.9
20260508061521 15 254 0.0 0.0 0.00 0.00 0.00 48 1014.0
20260508061023 15 254 0.0 0.0 0.00 0.00 0.00 47 1014.0
20260508060521 15 254 0.0 0.0 0.00 0.00 0.00 47 1014.1
20260508060020 15 257 0.0 0.0 0.00 0.00 0.00 46 1014.1
20260508055521 15 269 0.0 0.0 0.00 0.00 0.00 46 1014.0
20260508055020 15 258 0.0 0.0 0.00 0.00 0.00 45 1014.0
20260508054520 15 290 0.0 0.0 0.00 0.00 0.00 45 1014.0
20260508054019 15 253 0.0 0.0 0.00 0.00 0.00 45 1014.0
20260508053519 15 302 0.0 0.0 0.00 0.00 0.00 45 1014.0
20260508053020 15 294 0.0 0.0 0.00 0.00 0.00 45 1013.9
20260508052523 15 296 0.0 0.0 0.00 0.00 0.00 45 1013.9
20260508052019 16 252 0.0 0.0 0.00 0.00 0.00 45 1013.9
20260508051519 16 262 0.0 0.0 0.00 0.00 0.00 44 1013.9
20260508051119 16 269 0.0 0.0 0.00 0.00 0.00 44 1013.9
20260508050519 16 246 0.0 0.0 0.00 0.00 0.00 44 1013.8
20260508050033 16 288 0.0 0.0 0.00 0.00 0.00 44 1013.9
20260508045619 16 277 0.0 0.0 0.00 0.00 0.00 43 1013.7
20260508045018 16 296 0.0 0.0 0.00 0.00 0.00 43 1013.6
20260508044518 16 310 0.0 0.0 0.00 0.00 0.00 42 1013.7
20260508044018 16 242 0.0 0.0 0.00 0.00 0.00 42 1013.5
20260508043517 16 205 0.0 0.0 0.00 0.00 0.00 42 1013.5
20260508043017 16 289 0.0 0.0 0.00 0.00 0.00 41 1013.5
20260508042517 17 199 0.0 0.0 0.00 0.00 0.00 41 1013.4
20260508042022 17 277 0.0 0.0 0.00 0.00 0.00 40 1013.5
20260508041517 17 300 0.0 0.0 0.00 0.00 0.00 39 1013.5
20260508041017 17 226 0.0 0.0 0.00 0.00 0.00 38 1013.5
20260508040518 17 278 0.0 0.0 0.00 0.00 0.00 38 1013.4
20260508040016 17 230 0.0 0.0 0.00 0.00 0.00 37 1013.3
20260508035516 17 302 0.0 0.0 0.00 0.00 0.00 36 1013.4
20260508035016 17 327 0.0 0.0 0.00 0.00 0.00 36 1013.4
20260508034519 17 295 0.0 0.0 0.00 0.00 0.00 35 1013.3
20260508034016 17 293 0.0 0.0 0.00 0.00 0.00 33 1013.2
20260508033515 17 297 0.0 0.0 0.00 0.00 0.00 33 1013.2
20260508033015 17 283 0.0 0.0 0.00 0.00 0.00 32 1013.2
20260508032515 18 265 0.0 0.0 0.00 0.00 0.00 31 1013.1
20260508032016 18 288 0.0 0.0 0.00 0.00 0.00 30 1013.0
20260508031515 18 257 0.0 0.0 0.00 0.00 0.00 29 1013.1
20260508031015 18 292 0.0 0.0 0.00 0.00 0.00 29 1013.0
20260508030515 18 256 0.0 0.0 0.00 0.00 0.00 28 1013.1
20260508030015 18 242 0.0 0.0 0.00 0.00 0.00 27 1013.0
20260508025615 18 298 0.0 0.0 0.00 0.00 0.00 25 1013.0
20260508025115 18 278 0.0 0.0 0.00 0.00 0.00 25 1013.0
20260508024513 19 280 0.0 0.0 0.00 0.00 0.00 23 1012.9
20260508024013 19 290 0.0 0.0 0.00 0.00 0.00 23 1013.0
20260508023513 19 251 0.0 0.0 0.00 0.00 0.00 23 1012.9
20260508023013 19 313 0.0 0.0 0.00 0.00 0.00 23 1012.9
20260508022512 20 261 0.0 0.0 0.00 0.00 0.00 24 1012.7
20260508022012 20 277 0.0 0.0 0.00 0.00 0.00 23 1012.7
20260508021512 20 306 0.0 0.0 0.00 0.00 0.00 24 1012.7
20260508021013 20 245 0.0 0.0 0.00 0.00 0.00 24 1012.7
20260508020511 20 230 0.0 0.0 0.00 0.00 0.00 23 1012.7
20260508020012 20 273 0.0 0.0 0.00 0.00 0.00 23 1012.7
20260508015512 20 300 0.0 0.0 0.00 0.00 0.00 23 1012.9
20260508015010 20 283 0.0 0.0 0.00 0.00 0.00 22 1012.9
20260508014512 21 288 0.0 0.0 0.00 0.00 0.00 22 1012.7
20260508014008 21 257 0.0 0.0 0.00 0.00 0.00 22 1012.9
20260508013508 21 262 0.0 0.0 0.00 0.00 0.00 22 1012.8
20260508013010 21 268 0.0 0.0 0.00 0.00 0.00 22 1013.0
20260508012512 21 290 0.0 0.0 0.00 0.00 0.00 22 1013.0
20260508012007 21 291 0.0 0.0 0.00 0.00 0.00 21 1013.1
20260508011506 21 275 0.0 0.0 0.00 0.00 0.00 24 1013.2
20260508011006 21 240 0.0 0.0 0.00 0.00 0.00 25 1013.3
20260508010506 21 273 0.0 0.0 0.00 0.00 0.00 23 1013.4
20260508010006 21 306 0.0 0.0 0.00 0.00 0.00 24 1013.3
20260508005507 21 290 0.0 0.0 0.00 0.00 0.00 22 1013.3
20260508005007 21 274 0.0 0.0 0.00 0.00 0.00 23 1013.4
20260508004509 21 298 0.0 0.0 0.00 0.00 0.00 23 1013.4
20260508004005 21 292 0.0 0.0 0.00 0.00 0.00 22 1013.4
20260508003504 21 276 0.0 0.0 0.00 0.00 0.00 22 1013.5
20260508003006 21 300 0.0 0.0 0.00 0.00 0.00 24 1013.4
20260508002504 21 290 0.0 0.0 0.00 0.00 0.00 23 1013.5
20260508002004 21 249 0.0 0.0 0.00 0.00 0.00 22 1013.5
20260508001508 21 250 0.0 0.0 0.00 0.00 0.00 21 1013.5
20260508001004 21 265 0.0 0.0 0.00 0.00 0.00 21 1013.4
20260508000507 21 270 0.0 0.0 0.00 0.00 0.00 20 1013.4
20260508000003 21 295 0.0 0.0 0.00 0.00 0.00 19 1013.4
20260507235504 21 261 0.0 0.0 0.00 0.00 0.00 18 1013.4
20260507235005 22 301 0.0 0.0 0.00 0.00 0.00 20 1013.3
20260507234502 22 303 0.0 0.0 0.00 0.00 0.00 18 1013.4
20260507234050 22 287 0.0 0.0 0.00 0.00 0.00 21 1013.4
20260507233600 22 292 0.0 0.0 0.00 0.00 0.00 20 1013.4
20260507233100 22 270 0.0 0.0 0.00 0.00 0.00 20 1013.2
20260507232600 22 310 0.0 0.0 0.00 0.00 0.00 21 1013.5
20260507232057 22 265 0.0 0.0 0.00 0.00 0.00 23 1013.4
20260507231557 21 258 0.0 0.0 0.00 0.00 0.00 24 1013.5
20260507231056 21 277 0.0 0.0 0.00 0.00 0.00 23 1013.7
20260507230556 21 311 0.0 0.0 0.00 0.00 0.00 25 1013.5
20260507230055 21 267 0.0 0.0 0.00 0.00 0.00 26 1013.5
20260507225555 21 219 0.0 0.0 0.00 0.00 0.00 27 1013.6
20260507225054 21 302 0.0 0.0 0.00 0.00 0.00 29 1013.5
20260507224559 21 273 0.0 0.0 0.00 0.00 0.00 27 1013.7
20260507224051 21 305 0.0 0.0 0.00 0.00 0.00 30 1013.7
20260507223551 21 271 0.0 0.0 0.00 0.00 0.00 30 1013.8
20260507223051 21 292 0.0 0.0 0.00 0.00 0.00 30 1013.9
20260507222549 21 277 0.0 0.0 0.00 0.00 0.00 30 1014.0
20260507222051 21 263 0.0 0.0 0.00 0.00 0.00 31 1014.1
20260507221549 21 306 0.0 0.0 0.00 0.00 0.00 30 1014.1
20260507221048 21 287 0.0 0.0 0.00 0.00 0.00 31 1014.2
20260507220552 21 281 0.0 0.0 0.00 0.00 0.00 32 1014.2
20260507220049 21 290 0.0 0.0 0.00 0.00 0.00 31 1014.3
20260507215549 21 277 0.0 0.0 0.00 0.00 0.00 31 1014.3
20260507215050 21 281 0.0 0.0 0.00 0.00 0.00 31 1014.4
20260507214552 21 311 0.0 0.0 0.00 0.00 0.00 34 1014.3
20260507214048 21 281 0.0 0.0 0.00 0.00 0.00 32 1014.3
20260507213548 21 298 0.0 0.0 0.00 0.00 0.00 33 1014.2
20260507213046 21 291 0.0 0.0 0.00 0.00 0.00 32 1014.2
20260507212544 21 291 0.0 0.0 0.00 0.00 0.00 32 1014.3
20260507212044 21 292 0.0 0.0 0.00 0.00 0.00 36 1014.2
20260507211544 21 294 0.0 0.0 0.00 0.00 0.00 34 1014.3
20260507211042 21 304 0.0 0.0 0.00 0.00 0.00 36 1014.3
20260507210543 21 242 0.0 0.0 0.00 0.00 0.00 33 1014.3
20260507210040 20 297 0.0 0.0 0.00 0.00 0.00 39 1014.4
20260507205539 20 332 0.0 0.0 0.00 0.00 0.00 38 1014.6
20260507205041 20 262 0.0 0.0 0.00 0.00 0.00 39 1014.5
20260507204543 20 294 0.0 0.0 0.00 0.00 0.00 39 1014.5
20260507204036 20 249 0.0 0.0 0.00 0.00 0.00 37 1014.6
20260507203535 20 289 0.0 0.0 0.00 0.00 0.00 38 1014.7
20260507203035 19 294 0.0 0.0 0.00 0.00 0.00 40 1014.6
20260507202533 19 277 0.0 0.0 0.00 0.00 0.00 41 1014.8
20260507202035 19 312 0.0 0.0 0.00 0.00 0.00 40 1014.9
20260507201533 19 300 0.0 0.0 0.00 0.00 0.00 41 1014.9
20260507201032 19 290 0.0 0.0 0.00 0.00 0.00 41 1015.1
20260507200532 19 289 0.0 0.0 0.00 0.00 0.00 44 1015.0
20260507200030 18 275 0.0 0.0 0.00 0.00 0.00 40 1015.1
20260507195528 18 313 0.0 0.0 0.00 0.00 0.00 42 1015.2
20260507195029 18 281 0.0 0.0 0.00 0.00 0.00 41 1015.3
20260507194528 18 290 0.0 0.0 0.00 0.00 0.00 41 1015.4
20260507194027 18 294 0.0 0.0 0.00 0.00 0.00 41 1015.3
20260507193527 18 295 0.0 0.0 0.00 0.00 0.00 36 1015.3
20260507193031 18 290 0.0 0.0 0.00 0.00 0.00 38 1015.5
20260507192526 18 308 0.0 0.0 0.00 0.00 0.00 44 1015.7
20260507192026 18 294 0.0 0.0 0.00 0.00 0.00 44 1015.7
20260507191525 18 277 0.0 0.0 0.00 0.00 0.00 43 1015.8
20260507191024 18 252 0.0 0.0 0.00 0.00 0.00 44 1015.8
20260507190523 17 320 0.0 0.0 0.00 0.00 0.00 44 1015.8
20260507190022 17 262 0.0 0.0 0.00 0.00 0.00 44 1015.8
20260507185620 17 244 0.0 0.0 0.00 0.00 0.00 46 1015.9
20260507185021 17 271 0.0 0.0 0.00 0.00 0.00 46 1015.9
20260507184519 17 286 0.0 0.0 0.00 0.00 0.00 46 1015.8
20260507184020 17 294 0.0 0.0 0.00 0.00 0.00 43 1016.0
20260507183516 17 327 0.0 0.0 0.00 0.00 0.00 46 1016.0
20260507183015 16 333 0.0 0.0 0.00 0.00 0.00 48 1016.1
20260507182515 16 292 0.0 0.0 0.00 0.00 0.00 47 1016.1
20260507182015 16 298 0.0 0.0 0.00 0.00 0.00 46 1016.0
20260507181514 16 309 0.0 0.0 0.00 0.00 0.00 47 1016.0
20260507181013 16 303 0.0 0.0 0.00 0.00 0.00 48 1015.9
20260507180516 16 281 0.0 0.0 0.00 0.00 0.00 50 1016.0
20260507180010 16 264 0.0 0.0 0.00 0.00 0.00 53 1016.1
20260507175510 16 276 0.0 0.0 0.00 0.00 0.00 55 1016.0
20260507175011 15 266 0.0 0.0 0.00 0.00 0.00 53 1016.1
20260507174508 15 281 0.0 0.0 0.00 0.00 0.00 53 1016.2
20260507174008 15 261 0.0 0.0 0.00 0.00 0.00 55 1016.1
20260507173509 15 338 0.0 0.0 0.00 0.00 0.00 55 1016.1
20260507173005 15 304 0.0 0.0 0.00 0.00 0.00 54 1016.1
20260507172506 15 274 0.0 0.0 0.00 0.00 0.00 55 1016.1
20260507172005 15 284 0.0 0.0 0.00 0.00 0.00 55 1016.1
20260507171511 15 312 0.0 0.0 0.00 0.00 0.00 55 1016.1
20260507171005 15 288 0.0 0.0 0.00 0.00 0.00 59 1016.2
20260507170502 15 297 0.0 0.0 0.00 0.00 0.00 59 1016.1
20260507170002 14 229 0.0 0.0 0.00 0.00 0.00 61 1016.1
20260507165502 14 240 0.0 0.0 0.00 0.00 0.00 61 1016.2
20260507165001 14 245 0.0 0.0 0.00 0.00 0.00 63 1016.3
20260507164501 13 265 0.0 0.0 0.00 0.00 0.00 62 1016.4
20260507164104 13 267 0.0 0.0 0.00 0.00 0.00 63 1016.3
20260507163600 13 250 0.0 0.0 0.00 0.00 0.00 64 1016.4
20260507163100 13 254 0.0 0.0 0.00 0.00 0.00 65 1016.3
20260507162600 13 303 0.0 0.0 0.00 0.00 0.00 65 1016.4
20260507162101 13 279 0.0 0.0 0.00 0.00 0.00 65 1016.5
20260507161600 13 280 0.0 0.0 0.00 0.00 0.00 65 1016.5
20260507161059 13 281 0.0 0.0 0.00 0.00 0.00 66 1016.5
20260507160600 13 291 0.0 0.0 0.00 0.00 0.00 67 1016.6
20260507160059 12 304 0.0 0.0 0.00 0.00 0.00 67 1016.8
20260507155600 12 300 0.0 0.0 0.00 0.00 0.00 68 1017.0
20260507155058 12 292 0.0 0.0 0.00 0.00 0.00 68 1017.0
20260507154605 12 278 0.0 0.0 0.00 0.00 0.00 68 1017.1
20260507154058 12 296 0.0 0.0 0.00 0.00 0.00 68 1017.1
20260507153557 12 281 0.0 0.0 0.00 0.00 0.00 68 1017.1
20260507153101 12 267 0.0 0.0 0.00 0.00 0.00 68 1017.1
20260507152557 12 261 0.0 0.0 0.00 0.00 0.00 68 1017.0
20260507152057 12 263 0.0 0.0 0.00 0.00 0.00 68 1017.0
20260507151557 12 246 0.0 0.0 0.00 0.00 0.00 68 1017.1
20260507151056 12 295 0.0 0.0 0.00 0.00 0.00 69 1017.1
20260507150556 12 288 0.0 0.0 0.00 0.00 0.00 68 1017.2
20260507150057 12 258 0.0 0.0 0.00 0.00 0.00 68 1017.2
20260507145556 12 277 0.0 0.0 0.00 0.00 0.00 68 1017.2
20260507145056 11 247 0.0 0.0 0.00 0.00 0.00 68 1017.3
20260507144557 11 251 0.0 0.0 0.00 0.00 0.00 67 1017.3
20260507144056 11 290 0.0 0.0 0.00 0.00 0.00 68 1017.3
20260507143554 11 292 0.0 0.0 0.00 0.00 0.00 66 1017.3
20260507143055 11 267 0.0 0.0 0.00 0.00 0.00 66 1017.4
20260507142555 11 279 0.0 0.0 0.00 0.00 0.00 64 1017.3
20260507142054 11 276 0.0 0.0 0.00 0.00 0.00 64 1017.4
20260507141555 11 266 0.0 0.0 0.00 0.00 0.00 64 1017.3
20260507141054 11 284 0.0 0.0 0.00 0.00 0.00 64 1017.3
20260507140556 11 275 0.0 0.0 0.00 0.00 0.00 64 1017.2
20260507140054 11 224 0.0 0.0 0.00 0.00 0.00 63 1017.4
20260507135556 11 247 0.0 0.0 0.00 0.00 0.00 63 1017.2
20260507135053 11 277 0.0 0.0 0.00 0.00 0.00 62 1017.2
20260507134555 11 265 0.0 0.0 0.00 0.00 0.00 62 1017.1
20260507134052 11 265 0.0 0.0 0.00 0.00 0.00 62 1017.1
20260507133551 11 267 0.0 0.0 0.00 0.00 0.00 62 1016.9
20260507133055 11 269 0.0 0.0 0.00 0.00 0.00 61 1016.9
20260507132550 11 266 0.0 0.0 0.00 0.00 0.00 62 1016.8
20260507132053 11 282 0.0 0.0 0.00 0.00 0.00 61 1016.9
20260507131559 11 280 0.0 0.0 0.00 0.00 0.00 61 1016.8
20260507131049 11 254 0.0 0.0 0.00 0.00 0.00 61 1016.8
20260507130549 11 283 0.0 0.0 0.00 0.00 0.00 61 1016.6
20260507130104 11 261 0.0 0.0 0.00 0.00 0.00 61 1016.5
20260507125548 11 272 0.0 0.0 0.00 0.00 0.00 62 1016.6
20260507125046 11 279 0.0 0.0 0.00 0.00 0.00 62 1016.5
20260507124552 11 257 0.0 0.0 0.00 0.00 0.00 63 1016.5
20260507124046 11 290 0.0 0.0 0.00 0.00 0.00 63 1016.5
20260507123546 11 291 0.0 0.0 0.00 0.00 0.00 64 1016.5
20260507123044 12 259 0.0 0.0 0.00 0.00 0.00 64 1016.4
20260507122543 12 250 0.0 0.0 0.00 0.00 0.00 64 1016.4
20260507122043 12 287 0.0 0.0 0.00 0.00 0.00 65 1016.4
20260507122027 12 255 0.0 0.0 0.00 0.00 0.00 65 1016.4
20260507121041 12 186 0.0 0.0 0.00 0.00 0.00 65 1016.2
20260507120541 12 248 0.0 0.0 0.00 0.00 0.00 65 1016.2
20260507120043 12 285 0.0 0.0 0.00 0.00 0.00 65 1016.1
20260507115539 12 265 0.0 0.0 0.00 0.00 0.00 66 1016.0
20260507115037 12 270 0.0 0.0 0.00 0.00 0.00 66 1016.0
20260507114538 12 240 0.0 0.0 0.00 0.00 0.00 66 1015.8
20260507114037 12 282 0.0 0.0 0.00 0.00 0.00 66 1016.0
20260507113537 12 306 0.0 0.0 0.00 0.00 0.00 65 1016.0
20260507113037 12 270 0.0 0.0 0.00 0.00 0.00 65 1015.8
20260507112536 12 236 0.0 0.0 0.00 0.00 0.00 65 1015.9
20260507112036 12 277 0.0 0.0 0.00 0.00 0.00 65 1015.7
20260507111536 12 261 0.0 0.0 0.00 0.00 0.00 65 1015.8
20260507111035 12 301 0.0 0.0 0.00 0.00 0.00 65 1015.9
20260507110535 12 280 0.0 0.0 0.00 0.00 0.00 65 1015.8
20260507110035 12 262 0.0 0.0 0.00 0.00 0.00 65 1015.9
20260507105534 12 240 0.0 0.0 0.00 0.00 0.00 65 1015.8
20260507105036 12 281 0.0 0.0 0.00 0.00 0.00 65 1015.7
20260507104533 12 300 0.0 0.0 0.00 0.00 0.00 65 1015.7
20260507104033 12 213 0.0 0.0 0.00 0.00 0.00 65 1015.6
20260507103535 12 273 0.0 0.0 0.00 0.00 0.00 65 1015.6
20260507103034 12 245 0.0 0.0 0.00 0.00 0.00 65 1015.7
20260507102532 12 257 0.0 0.0 0.00 0.00 0.00 65 1015.5
20260507102031 12 232 0.0 0.0 0.00 0.00 0.00 64 1015.4
20260507101532 12 298 0.0 0.0 0.00 0.00 0.00 64 1015.6
20260507101030 12 267 0.0 0.0 0.00 0.00 0.00 64 1015.6
20260507100530 12 302 0.0 0.0 0.00 0.00 0.00 64 1015.7
20260507100035 13 267 0.0 0.0 0.00 0.00 0.00 64 1015.6
20260507095529 13 287 0.0 0.0 0.00 0.00 0.00 64 1015.5
20260507095029 13 314 0.0 0.0 0.00 0.00 0.00 64 1015.5
20260507094527 13 286 0.0 0.0 0.00 0.00 0.00 65 1015.6
20260507094027 13 322 0.0 0.0 0.00 0.00 0.00 65 1015.5
20260507093626 13 279 0.0 0.0 0.00 0.00 0.00 65 1015.6
20260507093025 13 239 0.0 0.0 0.00 0.00 0.00 65 1015.6
20260507092525 13 263 0.0 0.0 0.00 0.00 0.00 65 1015.7
20260507092024 13 298 0.0 0.0 0.00 0.00 0.00 65 1015.6
20260507091524 13 263 0.0 0.0 0.00 0.00 0.00 65 1015.7
20260507091024 13 263 0.0 0.0 0.00 0.00 0.00 66 1015.6
20260507090524 13 302 0.0 0.0 0.00 0.00 0.00 65 1015.7
20260507090023 13 260 0.0 0.0 0.00 0.00 0.00 66 1015.8
20260507085523 13 259 0.0 0.0 0.00 0.00 0.00 65 1015.8
20260507085023 13 270 0.0 0.0 0.00 0.00 0.00 65 1015.8
20260507084524 13 281 0.0 0.0 0.00 0.00 0.00 65 1015.9
20260507084022 13 257 0.0 0.0 0.00 0.00 0.00 65 1015.9
20260507083522 13 306 0.0 0.0 0.00 0.00 0.00 65 1015.8
20260507083023 13 313 0.0 0.0 0.00 0.00 0.00 65 1015.8
20260507082521 13 281 0.0 0.0 0.00 0.00 0.00 65 1015.7
20260507082019 14 265 0.0 0.0 0.00 0.00 0.00 65 1015.6
20260507081534 14 279 0.0 0.0 0.00 0.00 0.00 65 1015.5
20260507081019 14 300 0.0 0.0 0.00 0.00 0.00 66 1015.5
20260507080520 14 313 0.0 0.0 0.00 0.00 0.00 66 1015.3
20260507080016 14 266 0.0 0.0 0.00 0.00 0.00 66 1015.3
20260507075519 14 300 0.0 0.0 0.00 0.00 0.00 66 1015.3